Pampa, TX

6:21 PM CDT on May 26, 2017 (GMT -0500)
Perry Lefors

Weather History for KPPA - June, 2013

Change the Weather History Date:

Friday, June 14, 2013

  Actual Average Record
Temperature  
Mean Temperature 78 °F -  
Max Temperature 91 °F 87 °F 99 °F (1976)
Min Temperature 65 °F 59 °F 47 °F (1985)
Cooling Degree Days 13    
Growing Degree Days 28 (Base 50)    
Moisture  
Dew Point 55 °F    
Average Humidity 50    
Maximum Humidity 82    
Minimum Humidity 24    
Precipitation  
Precipitation 0.00 in - - ()
Sea Level Pressure  
Sea Level Pressure 30.04 in    
Wind  
Wind Speed 14 mph (South)    
Max Wind Speed 29 mph    
Max Gust Speed 36 mph    
Visibility 10 miles    
Events Rain    
Averages and records for this station are not official NWS values.
T = Trace of Precipitation, MM = Missing Value Source: NWS Daily Summary

Daily Weather History Graph

Daily Weather History Graph

Search for Another Location

Airport or City:

Trip Planner

Search our weather history database for the weather conditions in past years. The results will help you decide how hot, cold, wet, or windy it might be!

Date:

Astronomy

Jun. 14, 2013 Rise Set
Actual Time 6:27 AM CDT 9:01 PM CDT
Civil Twilight 5:57 AM CDT 9:31 PM CDT
Nautical Twilight 5:20 AM CDT 10:08 PM CDT
Astronomical Twilight 4:39 AM CDT 10:49 PM CDT
Moon 11:54 AM CDT (6/14) 12:17 AM CDT (6/14)
Length of Visible Light 15h 33m
Length of Day
14h 33m
Waxing Crescent, 30% of the Moon is Illuminated
Jun 14
Waxing Crescent
Jun 16
First Quarter
Jun 23
Full
Jun 29
Last Quarter
Jul 8
New

Hourly Weather History & Observations

Time (CDT) Temp. Heat Index Dew Point Humidity Pressure Visibility Wind Dir Wind Speed Gust Speed Precip Events Conditions
12:15 AM 74.7 °F - 56.7 °F 53% 30.07 in 10.0 mi South 9.2 mph - N/A   Clear
12:35 AM 73.9 °F - 56.8 °F 55% 30.07 in 10.0 mi South 9.2 mph - N/A   Clear
12:55 AM 73.9 °F - 56.7 °F 55% 30.07 in 10.0 mi South 10.4 mph - N/A   Clear
1:15 AM 74.8 °F - 56.3 °F 52% 30.06 in 10.0 mi South 11.5 mph - N/A   Clear
1:35 AM 75.2 °F - 55.8 °F 51% 30.06 in 10.0 mi South 11.5 mph - N/A   Clear
1:55 AM 75.2 °F - 55.6 °F 50% 30.06 in 10.0 mi South 11.5 mph - N/A   Clear
2:15 AM 74.7 °F - 55.8 °F 52% 30.05 in 10.0 mi South 11.5 mph - N/A   Clear
2:35 AM 73.9 °F - 56.3 °F 54% 30.05 in 10.0 mi South 10.4 mph - N/A   Clear
2:55 AM 73.0 °F - 56.3 °F 56% 30.04 in 10.0 mi South 10.4 mph - N/A   Clear
3:15 AM 72.3 °F - 56.1 °F 57% 30.05 in 10.0 mi South 11.5 mph - N/A   Clear
3:35 AM 70.9 °F - 56.1 °F 59% 30.04 in 10.0 mi SSW 11.5 mph - N/A   Clear
3:55 AM 70.7 °F - 56.3 °F 60% 30.03 in 10.0 mi SSW 11.5 mph - N/A   Clear
4:15 AM 69.3 °F - 56.3 °F 63% 30.03 in 10.0 mi SSW 10.4 mph - N/A   Clear
4:35 AM 68.2 °F - 56.3 °F 66% 30.03 in 10.0 mi SSW 10.4 mph - N/A   Clear
4:55 AM 68.0 °F - 56.3 °F 66% 30.03 in 10.0 mi SSW 8.1 mph - N/A   Clear
5:15 AM 66.2 °F - 56.3 °F 70% 30.03 in 10.0 mi SSW 8.1 mph - N/A   Clear
5:35 AM 65.7 °F - 56.5 °F 72% 30.03 in 10.0 mi SSW 10.4 mph - N/A   Clear
5:55 AM 65.8 °F - 56.7 °F 72% 30.04 in 10.0 mi SSW 9.2 mph - N/A   Clear
6:15 AM 67.3 °F - 57.6 °F 71% 30.05 in 7.0 mi SW 11.5 mph - N/A   Clear
6:35 AM 68.2 °F - 58.3 °F 71% 30.05 in 10.0 mi SW 12.7 mph - N/A   Clear
6:55 AM 69.3 °F - 58.6 °F 69% 30.05 in 10.0 mi SW 12.7 mph - N/A   Clear
7:15 AM 70.5 °F - 58.6 °F 66% 30.05 in 10.0 mi SW 12.7 mph - N/A   Clear
7:35 AM 72.1 °F - 58.6 °F 62% 30.06 in 10.0 mi SW 11.5 mph - N/A   Clear
7:55 AM 72.5 °F - 58.5 °F 61% 30.06 in 10.0 mi SW 10.4 mph - N/A   Clear
8:15 AM 75.0 °F - 58.5 °F 56% 30.06 in 10.0 mi SW 11.5 mph - N/A   Clear
8:35 AM 75.2 °F - 58.1 °F 55% 30.06 in 10.0 mi SSW 11.5 mph - N/A   Clear
8:55 AM 76.3 °F - 58.3 °F 54% 30.06 in 10.0 mi SSW 12.7 mph - N/A   Clear
9:15 AM 80.6 °F 80.6 °F 56.3 °F 43% 30.07 in 10.0 mi SSW 17.3 mph - N/A   Clear
9:35 AM 80.4 °F 80.7 °F 57.0 °F 45% 30.07 in 10.0 mi SSW 17.3 mph 23.0 mph N/A   Clear
9:55 AM 81.7 °F 81.5 °F 57.2 °F 43% 30.07 in 10.0 mi SSW 17.3 mph - N/A   Clear
10:15 AM 84.0 °F 83.0 °F 55.6 °F 38% 30.07 in 10.0 mi SSW 19.6 mph 24.2 mph N/A   Clear
10:35 AM 84.9 °F 83.3 °F 53.8 °F 34% 30.07 in 10.0 mi SSW 24.2 mph 27.6 mph N/A   Clear
10:55 AM 85.3 °F 83.6 °F 53.8 °F 34% 30.06 in 10.0 mi SSW 20.7 mph 27.6 mph N/A   Clear
11:15 AM 84.6 °F - 51.8 °F 32% 30.06 in 10.0 mi South 24.2 mph 27.6 mph N/A   Clear
11:35 AM 87.1 °F - 52.7 °F 31% 30.05 in 10.0 mi South 20.7 mph 28.8 mph N/A   Clear
11:55 AM 87.4 °F 85.3 °F 53.2 °F 31% 30.05 in 10.0 mi South 21.9 mph 29.9 mph N/A   Clear
12:15 PM 88.2 °F - 51.6 °F 28% 30.05 in 10.0 mi South 27.6 mph 31.1 mph N/A   Clear
12:35 PM 87.4 °F - 52.5 °F 30% 30.05 in 10.0 mi South 21.9 mph 28.8 mph N/A   Clear
12:55 PM 88.7 °F - 51.8 °F 28% 30.05 in 10.0 mi SSW 26.5 mph 32.2 mph N/A   Clear
1:15 PM 86.7 °F - 52.7 °F 31% 30.04 in 10.0 mi SSW 25.3 mph 29.9 mph N/A   Clear
1:35 PM 89.1 °F - 52.3 °F 28% 30.04 in 10.0 mi SSW 18.4 mph 26.5 mph N/A   Clear
1:55 PM 89.6 °F - 52.0 °F 28% 30.03 in 10.0 mi South 17.3 mph 27.6 mph N/A   Clear
2:15 PM 91.6 °F - 50.9 °F 25% 30.02 in 10.0 mi South 19.6 mph 25.3 mph N/A   Clear
2:35 PM 90.7 °F - 51.6 °F 26% 30.02 in 10.0 mi South 16.1 mph 26.5 mph N/A   Clear
3:15 PM 86.5 °F - 52.0 °F 30% 30.02 in 10.0 mi South 27.6 mph 35.7 mph N/A   Clear
3:35 PM 85.5 °F - 49.8 °F 29% 30.01 in 10.0 mi South 25.3 mph 34.5 mph N/A   Clear
3:55 PM 85.8 °F - 47.1 °F 26% 30.02 in 10.0 mi South 26.5 mph 32.2 mph N/A   Clear
4:15 PM 84.7 °F - 48.9 °F 29% 30.01 in 10.0 mi SSW 23.0 mph - N/A   Clear
4:35 PM 86.9 °F - 49.5 °F 27% 30.00 in 10.0 mi South 26.5 mph 31.1 mph N/A   Clear
4:55 PM 86.2 °F - 49.6 °F 28% 29.99 in 10.0 mi South 18.4 mph 27.6 mph N/A   Clear
5:15 PM 86.9 °F - 46.2 °F 24% 29.99 in 10.0 mi South 24.2 mph 28.8 mph N/A   Clear
5:35 PM 82.6 °F 82.0 °F 55.9 °F 40% 29.99 in 10.0 mi South 23.0 mph 35.7 mph N/A   Clear
5:55 PM 82.4 °F - 51.8 °F 35% 29.98 in 10.0 mi South 28.8 mph 35.7 mph N/A   Clear
6:15 PM 81.9 °F - 45.1 °F 27% 29.98 in 10.0 mi South 23.0 mph 31.1 mph N/A   Clear
6:35 PM 80.8 °F - 46.8 °F 30% 29.98 in 10.0 mi South 26.5 mph 32.2 mph N/A   Scattered Clouds
6:55 PM 79.3 °F - 53.1 °F 40% 29.99 in 10.0 mi South 24.2 mph 31.1 mph N/A   Mostly Cloudy
7:15 PM 77.0 °F - 55.9 °F 48% 30.00 in 10.0 mi South 19.6 mph 28.8 mph N/A   Overcast
7:35 PM 76.1 °F - 56.7 °F 51% 30.01 in 10.0 mi SSW 16.1 mph 24.2 mph N/A   Overcast
7:55 PM 75.9 °F - 57.0 °F 52% 30.02 in 10.0 mi South 16.1 mph 19.6 mph N/A   Mostly Cloudy
8:15 PM 75.4 °F - 57.0 °F 53% 30.03 in 10.0 mi South 16.1 mph - N/A   Clear
8:35 PM 75.2 °F - 55.4 °F 50% 30.03 in 10.0 mi South 15.0 mph 24.2 mph N/A   Mostly Cloudy
8:55 PM 74.7 °F - 56.3 °F 53% 30.03 in 10.0 mi South 17.3 mph 23.0 mph N/A   Overcast
9:15 PM 72.7 °F - 58.1 °F 60% 30.05 in 10.0 mi South 17.3 mph - N/A   Drizzle
9:35 PM 69.8 °F - 59.9 °F 71% 30.05 in 10.0 mi SSE 16.1 mph 20.7 mph N/A Rain Light Rain
9:55 PM 68.0 °F - 60.4 °F 77% 30.04 in 10.0 mi SE 15.0 mph - N/A   Light Drizzle
10:15 PM 67.1 °F - 60.8 °F 80% 30.05 in 10.0 mi SE 11.5 mph - N/A   Overcast
10:35 PM 67.5 °F - 60.8 °F 79% 30.06 in 10.0 mi SSE 11.5 mph - N/A   Overcast
10:55 PM 67.8 °F - 60.8 °F 78% 30.07 in 10.0 mi SSE 16.1 mph - N/A Rain Light Rain
11:15 PM 67.1 °F - 61.3 °F 82% 30.07 in 10.0 mi South 12.7 mph 17.3 mph N/A   Overcast
11:35 PM 67.3 °F - 60.4 °F 79% 30.07 in 10.0 mi South 18.4 mph - N/A   Overcast
11:55 PM 66.7 °F - 60.6 °F 81% 30.06 in 10.0 mi South 19.6 mph 25.3 mph N/A   Overcast